When you browse on this site, cookies collect data to enhance your experience and personalize the content and advertising you see.
Visit our Privacy Policy to learn more. By continuing to use the site, you agree to this use of cookies and data.
  • In Germany
  • List of Countries
  • For 7 days
  • Water Temperature
  • Weather Map
  • Weather Widgets
  • user-avatar
    Login

    Hourly Weather San Juan

    Today, 19 August, Monday

    Time Temperature Precipitation Wind Pressure Humidity
    00:00 +7°C° 0 mm 3 mps 710 mmHg 79%
    01:00 +6°C° 0 mm 2 mps 709 mmHg 81%
    02:00 +6°C° 0 mm 2 mps 709 mmHg 82%
    03:00 +6°C° 0 mm 2 mps 709 mmHg 82%
    04:00 +7°C° 0 mm 1 mps 709 mmHg 82%
    05:00 +6°C° 0 mm 2 mps 709 mmHg 80%
    06:00 +6°C° 0 mm 2 mps 709 mmHg 77%
    07:00 +7°C° 0 mm 3 mps 710 mmHg 74%
    08:00 +7°C° 0 mm 3 mps 710 mmHg 69%
    09:00 +8°C° 0 mm 3 mps 710 mmHg 64%
    10:00 +9°C° 0 mm 3 mps 710 mmHg 59%
    11:00 +10°C° 0 mm 2 mps 709 mmHg 55%
    12:00 +12°C° 0 mm 2 mps 708 mmHg 51%
    13:00 +14°C° 0 mm 2 mps 708 mmHg 48%
    14:00 +14°C° 0 mm 2 mps 708 mmHg 46%
    15:00 +14°C° 0 mm 2 mps 707 mmHg 44%
    16:00 +14°C° 0 mm 3 mps 707 mmHg 43%
    17:00 +13°C° 0 mm 2 mps 708 mmHg 47%
    18:00 +12°C° 0 mm 2 mps 708 mmHg 52%
    19:00 +10°C° 0 mm 2 mps 709 mmHg 56%
    20:00 +9°C° 0 mm 2 mps 709 mmHg 59%
    21:00 +10°C° 0 mm 1 mps 709 mmHg 63%
    22:00 +9°C° 0 mm 1 mps 709 mmHg 66%
    23:00 +9°C° 0 mm 1 mps 709 mmHg 70%

    Tomorrow, 20 August, Tuesday

    Time Temperature Precipitation Wind Pressure Humidity
    00:00 +8°C° 0 mm 1 mps 709 mmHg 73%
    01:00 +7°C° 0 mm 0 mps 709 mmHg 76%
    02:00 +6°C° 0 mm 0 mps 709 mmHg 78%
    03:00 +6°C° 0 mm 0 mps 708 mmHg 79%
    04:00 +5°C° 0 mm 0 mps 708 mmHg 81%
    05:00 +7°C° 0 mm 0 mps 709 mmHg 76%
    06:00 +8°C° 0 mm 0 mps 709 mmHg 71%
    07:00 +9°C° 0 mm 0 mps 710 mmHg 66%
    08:00 +10°C° 0 mm 0 mps 710 mmHg 60%
    09:00 +13°C° 0 mm 1 mps 710 mmHg 54%
    10:00 +14°C° 0 mm 1 mps 710 mmHg 47%
    11:00 +16°C° 0 mm 1 mps 710 mmHg 44%
    12:00 +18°C° 0 mm 1 mps 709 mmHg 40%
    13:00 +18°C° 0 mm 2 mps 709 mmHg 37%
    14:00 +18°C° 0 mm 2 mps 708 mmHg 36%
    15:00 +18°C° 0 mm 2 mps 708 mmHg 35%
    16:00 +19°C° 0 mm 2 mps 708 mmHg 35%
    17:00 +17°C° 0 mm 2 mps 708 mmHg 39%
    18:00 +15°C° 0 mm 1 mps 708 mmHg 44%
    19:00 +13°C° 0 mm 1 mps 708 mmHg 49%
    20:00 +13°C° 0 mm 1 mps 708 mmHg 52%
    21:00 +12°C° 0 mm 1 mps 708 mmHg 55%
    22:00 +11°C° 0 mm 1 mps 708 mmHg 59%
    23:00 +11°C° 0 mm 1 mps 707 mmHg 58%

    Day after tomorrow, 21 August, Wednesday

    Time Temperature Precipitation Wind Pressure Humidity
    00:00 +10°C° 0 mm 2 mps 707 mmHg 58%
    01:00 +9°C° 0 mm 2 mps 707 mmHg 58%
    02:00 +9°C° 0 mm 2 mps 707 mmHg 60%
    03:00 +8°C° 0 mm 2 mps 707 mmHg 61%
    04:00 +8°C° 0 mm 2 mps 706 mmHg 63%
    05:00 +9°C° 0 mm 2 mps 707 mmHg 59%
    06:00 +10°C° 0 mm 2 mps 707 mmHg 55%
    07:00 +11°C° 0 mm 1 mps 707 mmHg 51%
    08:00 +13°C° 0 mm 2 mps 707 mmHg 46%
    09:00 +15°C° 0 mm 2 mps 707 mmHg 40%
    10:00 +17°C° 0 mm 2 mps 707 mmHg 34%
    11:00 +19°C° 0 mm 2 mps 707 mmHg 32%
    12:00 +20°C° 0 mm 2 mps 706 mmHg 29%
    13:00 +21°C° 0 mm 2 mps 706 mmHg 26%
    14:00 +21°C° 0 mm 2 mps 705 mmHg 26%
    15:00 +21°C° 0 mm 3 mps 705 mmHg 26%
    16:00 +22°C° 0 mm 3 mps 705 mmHg 26%
    17:00 +20°C° 0 mm 3 mps 705 mmHg 30%
    18:00 +18°C° 0 mm 3 mps 706 mmHg 33%
    19:00 +16°C° 0 mm 3 mps 707 mmHg 37%
    20:00 +16°C° 0 mm 3 mps 707 mmHg 39%
    21:00 +14°C° 0 mm 3 mps 707 mmHg 41%
    22:00 +13°C° 0 mm 3 mps 708 mmHg 42%
    23:00 +13°C° 0 mm 3 mps 708 mmHg 44%

    22 August, Thursday

    Time Temperature Precipitation Wind Pressure Humidity
    00:00 +13°C° 0 mm 2 mps 708 mmHg 47%
    01:00 +12°C° 0 mm 2 mps 708 mmHg 49%
    02:00 +12°C° 0 mm 2 mps 708 mmHg 51%
    03:00 +10°C° 0 mm 2 mps 708 mmHg 52%
    04:00 +10°C° 0 mm 2 mps 708 mmHg 54%
    05:00 +12°C° 0 mm 2 mps 709 mmHg 52%
    06:00 +12°C° 0 mm 2 mps 710 mmHg 50%
    07:00 +13°C° 0 mm 2 mps 711 mmHg 49%
    08:00 +14°C° 0 mm 3 mps 711 mmHg 43%
    09:00 +17°C° 0 mm 4 mps 711 mmHg 38%
    10:00 +19°C° 0 mm 5 mps 712 mmHg 33%
    11:00 +20°C° 0 mm 5 mps 711 mmHg 31%
    12:00 +20°C° 0 mm 5 mps 711 mmHg 29%
    13:00 +21°C° 0 mm 4 mps 710 mmHg 28%
    14:00 +21°C° 0 mm 4 mps 710 mmHg 28%
    15:00 +21°C° 0 mm 4 mps 710 mmHg 28%
    16:00 +21°C° 0 mm 3 mps 710 mmHg 28%
    17:00 +19°C° 0 mm 3 mps 710 mmHg 32%
    18:00 +17°C° 0 mm 2 mps 710 mmHg 36%
    19:00 +15°C° 0 mm 1 mps 711 mmHg 41%
    20:00 +15°C° 0 mm 1 mps 711 mmHg 43%
    21:00 +14°C° 0 mm 1 mps 710 mmHg 45%
    22:00 +13°C° 0 mm 1 mps 710 mmHg 48%
    23:00 +13°C° 0 mm 1 mps 710 mmHg 51%

    23 August, Friday

    Time Temperature Precipitation Wind Pressure Humidity
    00:00 +11°C° 0 mm 0 mps 710 mmHg 54%
    01:00 +11°C° 0 mm 0 mps 709 mmHg 56%
    02:00 +12°C° 0 mm 1 mps 709 mmHg 56%
    03:00 +12°C° 0 mm 1 mps 709 mmHg 56%
    04:00 +11°C° 0 mm 1 mps 708 mmHg 55%
    05:00 +12°C° 0 mm 2 mps 708 mmHg 52%
    06:00 +13°C° 0 mm 2 mps 709 mmHg 48%
    07:00 +14°C° 0 mm 2 mps 709 mmHg 45%
    08:00 +16°C° 0 mm 3 mps 709 mmHg 39%
    09:00 +19°C° 0 mm 4 mps 709 mmHg 33%
    10:00 +21°C° 0 mm 4 mps 709 mmHg 28%
    11:00 +22°C° 0 mm 4 mps 708 mmHg 26%
    12:00 +23°C° 0 mm 4 mps 707 mmHg 24%
    13:00 +25°C° 0 mm 4 mps 706 mmHg 22%
    14:00 +25°C° 0 mm 4 mps 706 mmHg 23%
    15:00 +25°C° 0 mm 4 mps 705 mmHg 23%
    16:00 +25°C° 0 mm 3 mps 705 mmHg 24%
    17:00 +22°C° 0 mm 3 mps 705 mmHg 31%
    18:00 +20°C° 0 mm 3 mps 705 mmHg 37%
    19:00 +17°C° 0 mm 3 mps 705 mmHg 44%
    20:00 +17°C° 0 mm 3 mps 705 mmHg 46%
    21:00 +16°C° 0 mm 3 mps 705 mmHg 49%
    22:00 +16°C° 0 mm 3 mps 704 mmHg 51%
    23:00 +14°C° 0 mm 3 mps 704 mmHg 54%

    24 August, Saturday

    Time Temperature Precipitation Wind Pressure Humidity
    00:00 +13°C° 0 mm 3 mps 704 mmHg 56%
    01:00 +13°C° 0 mm 2 mps 703 mmHg 58%
    02:00 +13°C° 0 mm 2 mps 703 mmHg 62%
    03:00 +12°C° 0 mm 1 mps 703 mmHg 66%
    04:00 +11°C° 0 mm 1 mps 702 mmHg 69%
    05:00 +12°C° 0 mm 1 mps 703 mmHg 64%
    06:00 +13°C° 0 mm 1 mps 703 mmHg 59%
    07:00 +13°C° 0 mm 0 mps 704 mmHg 55%
    08:00 +16°C° 0 mm 2 mps 704 mmHg 49%
    09:00 +18°C° 0 mm 3 mps 704 mmHg 43%
    10:00 +20°C° 0 mm 4 mps 705 mmHg 38%
    11:00 +21°C° 0 mm 4 mps 704 mmHg 34%
    12:00 +24°C° 0 mm 3 mps 704 mmHg 31%
    13:00 +25°C° 0 mm 3 mps 703 mmHg 27%
    14:00 +25°C° 0 mm 3 mps 703 mmHg 26%
    15:00 +25°C° 0 mm 3 mps 703 mmHg 25%
    16:00 +26°C° 0 mm 3 mps 702 mmHg 24%
    17:00 +22°C° 0 mm 3 mps 703 mmHg 29%
    18:00 +20°C° 0 mm 2 mps 703 mmHg 34%
    19:00 +18°C° 0 mm 2 mps 703 mmHg 39%
    20:00 +17°C° 0 mm 2 mps 703 mmHg 41%
    21:00 +18°C° 0 mm 1 mps 703 mmHg 43%
    22:00 +16°C° 0 mm 1 mps 703 mmHg 46%
    23:00 +15°C° 0 mm 1 mps 703 mmHg 48%
    Show more